Sault Ste Marie, MI

7:29 PM EST on February 23, 2017 (GMT -0500)
Sault Ste Marie Municipal / Sanderson Field

Weather History for KANJ - December, 2012

Change the Weather History Date:

Friday, December 14, 2012

  Actual Average Record
Temperature  
Mean Temperature 28 °F 23 °F  
Max Temperature 35 °F 29 °F 53 °F (1975)
Min Temperature 20 °F 17 °F -18 °F (1933)
Degree Days  
Heating Degree Days 37 42  
Month to date heating degree days 500 557  
Since 1 July heating degree days 2288 2489  
Moisture  
Dew Point 21 °F    
Average Humidity 76    
Maximum Humidity 82    
Minimum Humidity 69    
Precipitation  
Precipitation T in 0.09 in 2.17 in (2015)
Month to date precipitation 1.35 1.37  
Year to date precipitation 27.56 31.53  
Snow  
Snow 0.00 in 1.10 in 8.70 in (1964)
Month to date snowfall 12.0 14.4  
Since 1 July snowfall 35.0 31.1  
Snow Depth 4.00 in    
Sea Level Pressure  
Sea Level Pressure 30.21 in    
Wind  
Wind Speed 7 mph (NNW)    
Max Wind Speed 20 mph    
Max Gust Speed 28 mph    
Visibility 10 miles    
Events      
T = Trace of Precipitation, MM = Missing Value Source: NWS Daily Summary

Daily Weather History Graph

Daily Weather History Graph

Search for Another Location

Airport or City:

Trip Planner

Search our weather history database for the weather conditions in past years. The results will help you decide how hot, cold, wet, or windy it might be!

Date:

Astronomy

Dec. 14, 2012 Rise Set
Actual Time 8:14 AM EST 4:50 PM EST
Civil Twilight 7:39 AM EST 5:25 PM EST
Nautical Twilight 7:00 AM EST 6:04 PM EST
Astronomical Twilight 6:24 AM EST 6:40 PM EST
Moon 9:15 AM EST (12/14) 6:46 PM EST (12/14)
Length of Visible Light 9h 46m
Length of Day
8h 36m
Waxing Crescent, 3% of the Moon is Illuminated
Dec 14
Waxing Crescent
Dec 20
First Quarter
Dec 28
Full
Jan 4
Last Quarter
Jan 11
New

Hourly Weather History & Observations

Time (EST) Temp. Windchill Dew Point Humidity Pressure Visibility Wind Dir Wind Speed Gust Speed Precip Events Conditions
12:55 AM 34.0 °F 23.8 °F 28.0 °F 79% 30.06 in 10.0 mi NW 16.1 mph 24.2 mph 0.00 in   Overcast
1:55 AM 32.0 °F 23.6 °F 27.0 °F 82% 30.08 in 10.0 mi NW 10.4 mph 21.9 mph N/A   Overcast
2:55 AM 30.9 °F 21.2 °F 25.0 °F 79% 30.10 in 10.0 mi NW 12.7 mph 23.0 mph 0.00 in   Overcast
3:55 AM 30.0 °F 17.9 °F 23.0 °F 75% 30.12 in 10.0 mi WNW 18.4 mph 24.2 mph 0.00 in   Overcast
4:30 AM 28.9 °F 19.8 °F 23.0 °F 78% 30.10 in 10.0 mi WNW 10.4 mph - N/A   Overcast
4:41 AM 28.9 °F 19.2 °F 23.0 °F 78% 30.10 in 10.0 mi NW 11.5 mph - N/A   Overcast
4:55 AM 28.9 °F 18.6 °F 21.9 °F 75% 30.13 in 10.0 mi NW 12.7 mph 21.9 mph N/A   Overcast
5:55 AM 28.9 °F 19.2 °F 21.9 °F 75% 30.14 in 10.0 mi NW 11.5 mph 19.6 mph N/A   Overcast
6:55 AM 28.9 °F 18.2 °F 23.0 °F 78% 30.17 in 10.0 mi NNW 13.8 mph 20.7 mph N/A   Overcast
7:55 AM 28.0 °F 18.1 °F 21.9 °F 78% 30.18 in 10.0 mi NNW 11.5 mph 17.3 mph N/A   Overcast
8:55 AM 28.0 °F 19.3 °F 21.9 °F 78% 30.20 in 10.0 mi NW 9.2 mph - N/A   Overcast
9:52 AM 28.4 °F 21.2 °F 19.4 °F 69% 30.21 in 10.0 mi North 6.9 mph - N/A   Overcast
9:55 AM 28.0 °F 20.8 °F 19.9 °F 72% 30.24 in 10.0 mi NNW 6.9 mph - N/A   Overcast
10:55 AM 28.0 °F 22.8 °F 19.9 °F 72% 30.25 in 10.0 mi NNW 4.6 mph - N/A   Overcast
11:55 AM 28.9 °F 21.1 °F 21.0 °F 72% 30.25 in 10.0 mi NNW 8.1 mph - N/A   Overcast
12:55 PM 30.0 °F 25.2 °F 21.0 °F 69% 30.25 in 10.0 mi NNW 4.6 mph - N/A   Overcast
1:55 PM 30.0 °F 25.2 °F 21.0 °F 69% 30.25 in 10.0 mi NNW 4.6 mph - 0.00 in   Overcast
2:55 PM 30.0 °F 26.5 °F 21.9 °F 72% 30.24 in 10.0 mi NNW 3.5 mph - 0.00 in   Overcast
3:24 PM 28.9 °F 25.2 °F 21.0 °F 72% 30.22 in 10.0 mi West 3.5 mph - N/A   Scattered Clouds
3:55 PM 28.9 °F 25.2 °F 21.0 °F 72% 30.24 in 10.0 mi West 3.5 mph - N/A   Clear
4:55 PM 27.0 °F - 19.9 °F 75% 30.25 in 10.0 mi Calm Calm - N/A   Clear
5:55 PM 25.0 °F - 19.9 °F 81% 30.26 in 10.0 mi Calm Calm - 0.00 in   Clear
6:55 PM 24.1 °F - 19.0 °F 81% 30.25 in 10.0 mi Calm Calm - 0.00 in   Clear
7:55 PM 24.1 °F 19.7 °F 19.9 °F 84% 30.27 in 9.0 mi East 3.5 mph - 0.00 in   Clear
8:55 PM 23.0 °F 15.8 °F 17.1 °F 78% 30.29 in 10.0 mi East 5.8 mph - 0.00 in   Clear
9:55 PM 21.9 °F 14.5 °F 16.0 °F 78% 30.28 in 10.0 mi East 5.8 mph - 0.00 in   Clear
10:55 PM 21.0 °F 12.4 °F 15.1 °F 78% 30.30 in 10.0 mi East 6.9 mph - 0.00 in   Clear
11:55 PM 21.0 °F 12.4 °F 14.0 °F 74% 30.29 in 10.0 mi East 6.9 mph - 0.00 in   Mostly Cloudy